• In Romania
  • List of Countries
  • For 7 days
  • Water Temperature
  • Satellite Maps
  • Weather Map
  • Weather Widgets
  • user-avatar
    Login

    Hourly Weather Ali Bayramli

    Today, 27 April, Thursday

    Time Temperature Precipitation Wind Pressure Humidity
    00:00 +10°C° 0 mm 1 mps 773 mmHg 65%
    01:00 +8°C° 0 mm 0 mps 773 mmHg 66%
    02:00 +7°C° 0 mm 0 mps 772 mmHg 68%
    03:00 +7°C° 0 mm 0 mps 772 mmHg 69%
    04:00 +8°C° 0 mm 0 mps 772 mmHg 67%
    05:00 +9°C° 0 mm 0 mps 772 mmHg 64%
    06:00 +10°C° 0 mm 0 mps 772 mmHg 61%
    07:00 +12°C° 0 mm 1 mps 772 mmHg 56%
    08:00 +13°C° 0 mm 1 mps 772 mmHg 50%
    09:00 +15°C° 0 mm 1 mps 772 mmHg 44%
    10:00 +16°C° 0 mm 2 mps 772 mmHg 42%
    11:00 +17°C° 0 mm 2 mps 771 mmHg 41%
    12:00 +18°C° 0 mm 3 mps 771 mmHg 39%
    13:00 +19°C° 0 mm 3 mps 771 mmHg 39%
    14:00 +19°C° 0 mm 4 mps 770 mmHg 39%
    15:00 +19°C° 0 mm 5 mps 770 mmHg 39%
    16:00 +18°C° 0 mm 4 mps 770 mmHg 41%
    17:00 +17°C° 0 mm 4 mps 770 mmHg 44%
    18:00 +15°C° 0 mm 4 mps 770 mmHg 46%
    19:00 +14°C° 0 mm 3 mps 770 mmHg 49%
    20:00 +13°C° 0 mm 2 mps 770 mmHg 53%
    21:00 +12°C° 0 mm 1 mps 770 mmHg 56%
    22:00 +12°C° 0 mm 1 mps 770 mmHg 58%
    23:00 +11°C° 0 mm 1 mps 770 mmHg 60%

    Tomorrow, 28 April, Friday

    Time Temperature Precipitation Wind Pressure Humidity
    00:00 +11°C° 0 mm 1 mps 770 mmHg 62%
    01:00 +11°C° 0 mm 1 mps 770 mmHg 63%
    02:00 +11°C° 0 mm 1 mps 769 mmHg 64%
    03:00 +10°C° 0 mm 0 mps 769 mmHg 65%
    04:00 +11°C° 0 mm 1 mps 769 mmHg 63%
    05:00 +12°C° 0 mm 1 mps 769 mmHg 61%
    06:00 +12°C° 0 mm 1 mps 769 mmHg 60%
    07:00 +14°C° 0 mm 1 mps 769 mmHg 55%
    08:00 +16°C° 0 mm 1 mps 768 mmHg 50%
    09:00 +18°C° 0 mm 1 mps 768 mmHg 45%
    10:00 +19°C° 0 mm 2 mps 768 mmHg 42%
    11:00 +20°C° 0 mm 2 mps 767 mmHg 39%
    12:00 +21°C° 0 mm 3 mps 767 mmHg 35%
    13:00 +21°C° 0 mm 3 mps 766 mmHg 35%
    14:00 +21°C° 0 mm 4 mps 766 mmHg 34%
    15:00 +22°C° 0 mm 4 mps 765 mmHg 34%
    16:00 +20°C° 0 mm 4 mps 765 mmHg 37%
    17:00 +19°C° 0 mm 4 mps 765 mmHg 41%
    18:00 +18°C° 0 mm 3 mps 764 mmHg 44%
    19:00 +17°C° 0 mm 3 mps 765 mmHg 47%
    20:00 +16°C° 0 mm 2 mps 765 mmHg 50%
    21:00 +14°C° 0 mm 1 mps 765 mmHg 54%
    22:00 +14°C° 0 mm 1 mps 764 mmHg 55%
    23:00 +13°C° 0 mm 1 mps 764 mmHg 56%

    Day after tomorrow, 29 April, Saturday

    Time Temperature Precipitation Wind Pressure Humidity
    00:00 +13°C° 0 mm 1 mps 764 mmHg 58%
    01:00 +13°C° 0 mm 1 mps 763 mmHg 58%
    02:00 +13°C° 0 mm 1 mps 763 mmHg 58%
    03:00 +13°C° 0 mm 1 mps 763 mmHg 58%
    04:00 +13°C° 0 mm 1 mps 763 mmHg 56%
    05:00 +14°C° 0 mm 1 mps 762 mmHg 55%
    06:00 +15°C° 0 mm 1 mps 762 mmHg 53%
    07:00 +18°C° 0 mm 1 mps 762 mmHg 47%
    08:00 +20°C° 0 mm 1 mps 762 mmHg 42%
    09:00 +21°C° 0 mm 1 mps 762 mmHg 36%
    10:00 +23°C° 0 mm 2 mps 762 mmHg 34%
    11:00 +24°C° 0 mm 2 mps 761 mmHg 33%
    12:00 +25°C° 0 mm 2 mps 761 mmHg 31%
    13:00 +25°C° 0 mm 3 mps 761 mmHg 32%
    14:00 +26°C° 0 mm 4 mps 760 mmHg 33%
    15:00 +26°C° 0 mm 5 mps 760 mmHg 33%
    16:00 +23°C° 0 mm 4 mps 760 mmHg 38%
    17:00 +21°C° 0 mm 4 mps 760 mmHg 42%
    18:00 +20°C° 0 mm 4 mps 760 mmHg 47%
    19:00 +19°C° 0 mm 3 mps 760 mmHg 50%
    20:00 +18°C° 0 mm 2 mps 761 mmHg 53%
    21:00 +16°C° 0 mm 1 mps 761 mmHg 57%
    22:00 +16°C° 0 mm 1 mps 760 mmHg 58%
    23:00 +16°C° 0 mm 1 mps 760 mmHg 59%

    30 April, Sunday

    Time Temperature Precipitation Wind Pressure Humidity
    00:00 +15°C° 0 mm 1 mps 760 mmHg 60%
    01:00 +15°C° 0 mm 1 mps 760 mmHg 61%
    02:00 +14°C° 0 mm 1 mps 760 mmHg 63%
    03:00 +14°C° 0 mm 1 mps 759 mmHg 65%
    04:00 +15°C° 0 mm 1 mps 759 mmHg 63%
    05:00 +16°C° 0 mm 1 mps 760 mmHg 61%
    06:00 +18°C° 0 mm 1 mps 760 mmHg 58%
    07:00 +19°C° 0 mm 1 mps 760 mmHg 53%
    08:00 +21°C° 0 mm 1 mps 760 mmHg 47%
    09:00 +23°C° 0 mm 2 mps 760 mmHg 41%
    10:00 +24°C° 0 mm 2 mps 760 mmHg 39%
    11:00 +26°C° 0 mm 2 mps 759 mmHg 36%
    12:00 +27°C° 0 mm 2 mps 759 mmHg 33%
    13:00 +28°C° 0 mm 2 mps 759 mmHg 32%
    14:00 +28°C° 0 mm 3 mps 758 mmHg 32%
    15:00 +28°C° 0 mm 3 mps 758 mmHg 31%
    16:00 +27°C° 0 mm 3 mps 758 mmHg 34%
    17:00 +25°C° 0 mm 3 mps 758 mmHg 38%
    18:00 +22°C° 0 mm 4 mps 758 mmHg 41%
    19:00 +21°C° 0 mm 3 mps 759 mmHg 44%
    20:00 +19°C° 0 mm 2 mps 759 mmHg 46%
    21:00 +19°C° 0 mm 1 mps 759 mmHg 48%
    22:00 +19°C° 0 mm 1 mps 759 mmHg 48%
    23:00 +18°C° 0 mm 1 mps 759 mmHg 48%

    1 May, Monday

    Time Temperature Precipitation Wind Pressure Humidity
    00:00 +18°C° 0 mm 1 mps 759 mmHg 48%
    01:00 +18°C° 0 mm 1 mps 759 mmHg 48%
    02:00 +16°C° 0 mm 2 mps 759 mmHg 48%
    03:00 +16°C° 0 mm 2 mps 759 mmHg 48%
    04:00 +16°C° 0 mm 2 mps 759 mmHg 47%
    05:00 +17°C° 0 mm 2 mps 760 mmHg 47%
    06:00 +18°C° 0 mm 2 mps 760 mmHg 46%
    07:00 +21°C° 0 mm 1 mps 760 mmHg 42%
    08:00 +22°C° 0 mm 1 mps 760 mmHg 38%
    09:00 +24°C° 0 mm 1 mps 760 mmHg 34%
    10:00 +26°C° 0 mm 1 mps 760 mmHg 32%
    11:00 +27°C° 0 mm 1 mps 760 mmHg 30%
    12:00 +28°C° 0 mm 2 mps 760 mmHg 28%
    13:00 +29°C° 0 mm 2 mps 760 mmHg 28%
    14:00 +29°C° 0 mm 3 mps 759 mmHg 27%
    15:00 +29°C° 0 mm 4 mps 759 mmHg 27%
    16:00 +27°C° 0 mm 4 mps 759 mmHg 30%
    17:00 +26°C° 0 mm 4 mps 760 mmHg 34%
    18:00 +23°C° 0 mm 4 mps 760 mmHg 37%
    19:00 +21°C° 0 mm 3 mps 760 mmHg 38%
    20:00 +20°C° 0 mm 3 mps 760 mmHg 40%
    21:00 +19°C° 0 mm 2 mps 761 mmHg 42%
    22:00 +18°C° 0 mm 2 mps 761 mmHg 42%
    23:00 +18°C° 0 mm 2 mps 760 mmHg 43%

    2 May, Tuesday

    Time Temperature Precipitation Wind Pressure Humidity
    00:00 +17°C° 0 mm 2 mps 760 mmHg 43%
    01:00 +17°C° 0 mm 2 mps 760 mmHg 44%
    02:00 +17°C° 0 mm 2 mps 760 mmHg 45%
    03:00 +16°C° 0 mm 2 mps 760 mmHg 46%
    04:00 +18°C° 0 mm 1 mps 760 mmHg 45%
    05:00 +19°C° 0 mm 1 mps 761 mmHg 45%
    06:00 +19°C° 0 mm 1 mps 761 mmHg 44%
    07:00 +21°C° 0 mm 1 mps 761 mmHg 39%
    08:00 +23°C° 0 mm 1 mps 761 mmHg 34%
    09:00 +24°C° 0 mm 1 mps 761 mmHg 29%
    10:00 +26°C° 0 mm 2 mps 761 mmHg 27%
    11:00 +27°C° 0 mm 2 mps 760 mmHg 25%
    12:00 +28°C° 0 mm 3 mps 760 mmHg 22%
    13:00 +28°C° 0 mm 4 mps 760 mmHg 23%
    14:00 +28°C° 0 mm 5 mps 760 mmHg 24%
    15:00 +28°C° 0 mm 5 mps 759 mmHg 24%
    16:00 +27°C° 0 mm 5 mps 759 mmHg 27%
    17:00 +25°C° 0 mm 5 mps 759 mmHg 31%
    18:00 +23°C° 0 mm 4 mps 759 mmHg 34%
    19:00 +22°C° 0 mm 4 mps 759 mmHg 35%
    20:00 +21°C° 0 mm 3 mps 759 mmHg 35%
    21:00 +20°C° 0 mm 3 mps 760 mmHg 36%
    22:00 +19°C° 0 mm 3 mps 760 mmHg 37%
    23:00 +19°C° 0 mm 2 mps 759 mmHg 37%
    Show more